Home   Weather   Włocławek   Past weeks

Flag for Poland Past Weather in Włocławek, Poland — Yesterday and Last 2 Weeks

Now
77 °F

Mild.


Feels Like: 78 °F
Forecast: 60 / 75 °F
Wind: 2 mph from South

Location: Plock

Current Time: Jul 23, 2017 at 2:44:54 pm

Latest Report: Jul 23, 2017 at 2:00 pm


Visibility: N/A

Pressure: 29.88 "Hg

Humidity: 66%

Dew Point: 64 °F

Location of WłocławekLocation

Past Weather in Włocławek — Graph

°F

Włocławek Temperature Yesterday

Maximum temperature yesterday: 77 °F (at 3:00 pm)
Minimum temperature yesterday: 61 °F (at 5:00 am)
Average temperature yesterday: 69 °F

High & Low Weather Summary for the Past Weeks

 TemperatureHumidityPressure
High83 °F (Jul 10, 3:00 pm)98% (Jul 11, 1:00 am)30.19 "Hg (Jul 11, 1:00 am)
Low48 °F (Jul 18, 5:00 am)40% (Jul 16, 4:00 pm)29.65 "Hg (Jul 13, 5:00 am)
Average65 °F77%29.95 "Hg
* Reported Jul 8 1:00 pm — Jul 23 1:00 pm, Włocławek. Weather by CustomWeather, © 2017

Note: Actual official high and low records may vary slightly from our data, if they occured in-between our weather recording intervals... More about our weather records

Advertising

Włocławek Weather History for the Previous 24 Hours

Scroll right to see more
 ConditionsComfort  
Time TempWeatherWind HumidityBarometerVisibility
1:00 pm
Sun, Jul 23
74 °FMild.6 mph71%29.89 "HgN/A
12:00 pm74 °FMild.5 mph73%29.90 "HgN/A
11:00 am71 °FMild.5 mph79%29.91 "HgN/A
10:00 am67 °FMild.5 mph89%29.92 "HgN/A
9:00 am63 °FMild.5 mph94%29.93 "HgN/A
8:00 am62 °FCool.3 mph97%29.95 "HgN/A
7:00 am61 °FCool.3 mph96%29.96 "HgN/A
6:00 am61 °FCool.3 mph93%29.98 "HgN/A
1:00 am65 °FMild.5 mph76%29.99 "HgN/A
12:00 am64 °FMild.3 mph80%30.01 "HgN/A
11:00 pm
Sat, Jul 22
64 °FMild.2 mph81%30.01 "HgN/A
10:00 pm66 °FMild.3 mph79%30.01 "HgN/A
9:00 pm68 °FMild.2 mph78%30.01 "HgN/A
8:00 pm72 °FMild.3 mph69%29.99 "HgN/A
7:00 pm75 °FMild.2 mph63%29.98 "HgN/A
6:00 pm76 °FMild.3 mph58%29.97 "HgN/A
5:00 pm75 °FMild.1 mph61%29.99 "HgN/A
4:00 pm76 °FMild.2 mph57%30.00 "HgN/A
3:00 pm77 °FMild.1 mph55%30.00 "HgN/A
2:00 pm76 °FMild.1 mph61%30.01 "HgN/A
Weather by CustomWeather, © 2017

See weather overviewHow to use our weather pages